Zurück zum Katalog

STARLINK-5697

AktivKommunikationVLEO
NORAD 55589·PAYLOAD·🇺🇸 United States

Gestartet Feb 12, 2023 von Cape Canaveral Space Force Station

Loading…

Nächste Überflüge (nächste 24 Stunden)

TLE

AktuellSource: CelesTrak SupGP

Epoche: Sep 14, 2026, 21:24 UTC

1 55589C 23020W   26257.89215278  .00014721  00000+0  53318-3 0  2577
2 55589  43.0045  16.6997 0002216 276.7031 265.4311 15.27570801    14

Verfolge STARLINK-5697 in Echtzeit mit AllMySat

Download on the App Store